KSDF Airport Diagram

We have created a template for each of the higher traffic airports in the vZID airspace. They include KCMH, KCRW, KCVG, KDAY, KIND, KLEX and KSDF. You wil find usefull information including the airport diagram, weather, and specific airport procedures.

KSDF Weather

[Source: ADDS]
METAR
KSDF 180104Z 23005KT 10SM FEW004 SCT012 OVC027 07/06 A3003 RMK AO2 T00720061 =
KSDF 172323Z 1800/1906 26007KT 4SM -RADZ OVC007 FM180300 29007KT P6SM BKN008 FM181600 VRB04KT P6SM OVC016 FM190300 09007KT P6SM OVC013
TAF
KSDF 172323Z 1800/1906 26007KT 4SM -RADZ OVC007 FM180300 29007KT P6SM BKN008 FM181600 VRB04KT P6SM OVC016 FM190300 09007KT P6SM OVC013 =

KSDF Operations

Calm Wind Configuration is runways 17L and 17R.

Runway 17L typically departs north and east.

Runway 17R typicall departs south and west.

 

JSN Epic template designed by JoomlaShine.com